Earlysville, VA

4:40 AM EST on February 10, 2016 (GMT -0500)
Charlottesville-Albemarle

Weather History for KCHO - June, 2013

Change the Weather History Date:

Thursday, June 13, 2013

  Actual Average Record
Temperature  
Mean Temperature 76 °F 72 °F  
Max Temperature 84 °F 83 °F 96 °F (1902)
Min Temperature 67 °F 60 °F 48 °F (1903)
Degree Days  
Heating Degree Days 0 0  
Month to date heating degree days 2 8  
Since 1 June heating degree days 2 8  
Since 1 July heating degree days 4207 4441  
Cooling Degree Days 11 7  
Month to date cooling degree days 92 71  
Year to date cooling degree days 239 157  
Since 1 June cooling degree days 92 71  
Growing Degree Days 26 (Base 50)    
Moisture  
Dew Point 65 °F    
Average Humidity 74    
Maximum Humidity 93    
Minimum Humidity 54    
Precipitation  
Precipitation 0.05 in 0.12 in 1.08 in (2000)
Month to date precipitation 5.86 1.82  
Year to date precipitation 22.49 18.29  
Sea Level Pressure  
Sea Level Pressure 29.64 in    
Wind  
Wind Speed 6 mph (WSW)    
Max Wind Speed 20 mph    
Max Gust Speed 29 mph    
Visibility 9 miles    
Events Rain , Thunderstorm    
T = Trace of Precipitation, MM = Missing Value Source: NWS Daily Summary

Daily Weather History Graph

Daily Weather History Graph

Search for Another Location

Airport or City:

Trip Planner

Search our weather history database for the weather conditions in past years. The results will help you decide how hot, cold, wet, or windy it might be!

Date:

Astronomy

Jun. 13, 2013 Rise Set
Actual Time 5:50 AM EDT 8:37 PM EDT
Civil Twilight 5:18 AM EDT 9:09 PM EDT
Nautical Twilight 4:39 AM EDT 9:48 PM EDT
Astronomical Twilight 3:54 AM EDT 10:33 PM EDT
Moon 10:21 AM EDT (6/13) 11:47 PM EDT (6/13)
Length of Visible Light 15h 50m
Length of Day
14h 47m
Waxing Crescent, 21% of the Moon is Illuminated
Jun 13
Waxing Crescent
Jun 16
First Quarter
Jun 23
Full
Jun 30
Last Quarter
Jul 8
New

Hourly Weather History & Observations

Time (EDT) Temp. Heat Index Dew Point Humidity Pressure Visibility Wind Dir Wind Speed Gust Speed Precip Events Conditions
12:53 AM 73.9 °F - 72.0 °F 93% 29.81 in 5.0 mi West 3.5 mph - N/A   Clear
1:53 AM 73.9 °F - 70.0 °F 87% 29.78 in 8.0 mi WSW 4.6 mph - N/A   Clear
2:53 AM 75.0 °F - 69.1 °F 82% 29.76 in 10.0 mi SW 4.6 mph - N/A   Clear
3:53 AM 72.0 °F - 69.1 °F 91% 29.73 in 7.0 mi Calm Calm - N/A   Partly Cloudy
4:53 AM 72.0 °F - 68.0 °F 87% 29.71 in 8.0 mi SSW 3.5 mph - N/A   Clear
5:53 AM 73.9 °F - 68.0 °F 82% 29.69 in 10.0 mi SSW 3.5 mph - N/A   Clear
6:53 AM 73.9 °F - 68.0 °F 82% 29.68 in 9.0 mi Calm Calm - N/A   Clear
7:53 AM 75.9 °F - 70.0 °F 82% 29.67 in 9.0 mi South 6.9 mph - N/A   Clear
8:53 AM 78.1 °F - 71.1 °F 79% 29.68 in 9.0 mi South 8.1 mph - N/A   Clear
9:53 AM 78.1 °F - 60.1 °F 54% 29.72 in 10.0 mi NW 8.1 mph 24.2 mph N/A   Overcast
10:53 AM 77.0 °F - 61.0 °F 58% 29.65 in 10.0 mi SW 5.8 mph - N/A   Mostly Cloudy
11:53 AM 78.1 °F - 62.1 °F 58% 29.62 in 10.0 mi WSW 13.8 mph - N/A   Mostly Cloudy
12:53 PM 82.9 °F 84.6 °F 64.9 °F 54% 29.59 in 10.0 mi West 13.8 mph - N/A   Mostly Cloudy
1:31 PM 82.4 °F 84.6 °F 66.2 °F 58% 29.60 in 10.0 mi WSW 13.8 mph - N/A   Mostly Cloudy
1:53 PM 80.1 °F 82.7 °F 68.0 °F 67% 29.55 in 7.0 mi Calm Calm - 0.00 in Rain Light Rain
2:53 PM 79.0 °F - 66.9 °F 66% 29.55 in 10.0 mi Variable 6.9 mph - 0.00 in Rain Light Rain
3:53 PM 73.9 °F - 64.0 °F 71% 29.55 in 10.0 mi Variable 4.6 mph - 0.01 in Rain Light Rain
4:32 PM 71.6 °F - 66.2 °F 83% 29.57 in 7.0 mi SSW 8.1 mph - 0.03 in Rain , Thunderstorm Thunderstorms and Rain
4:43 PM 71.6 °F - 66.2 °F 83% 29.56 in 9.0 mi SSW 4.6 mph - 0.04 in Rain Light Rain
4:53 PM 70.0 °F - 66.9 °F 90% 29.54 in 10.0 mi Calm Calm - 0.04 in Rain Light Rain
5:53 PM 73.0 °F - 66.0 °F 79% 29.55 in 10.0 mi Variable 4.6 mph - 0.00 in Rain Light Rain
6:53 PM 75.0 °F - 64.9 °F 71% 29.56 in 10.0 mi Calm Calm - 0.00 in Rain Light Rain
7:53 PM 75.0 °F - 61.0 °F 62% 29.59 in 10.0 mi NW 10.4 mph 18.4 mph 0.00 in Rain Light Rain
8:53 PM 73.0 °F - 59.0 °F 61% 29.63 in 10.0 mi North 8.1 mph 21.9 mph 0.00 in Rain Light Rain
9:53 PM 70.0 °F - 54.0 °F 57% 29.65 in 10.0 mi NW 8.1 mph - 0.00 in Rain Light Rain
10:53 PM 69.1 °F - 53.1 °F 57% 29.66 in 10.0 mi WNW 6.9 mph - 0.00 in Rain Light Rain
11:53 PM 66.9 °F - 53.1 °F 61% 29.67 in 10.0 mi WNW 5.8 mph - 0.00 in Rain Light Rain